カタログに戻る

STARLINK-35763

運用中通信VLEO
NORAD 67089·PAYLOAD·🇺🇸 United States

打ち上げ Dec 14, 2025 から Vandenberg Space Force Base

Loading…

次のパス (今後24時間)

TLE

最新Source: CelesTrak SupGP

元期: Sep 15, 2026, 03:34 UTC

1 67089C 25298Q   26258.14909722 -.00049154  00000+0 -41185-2 0  2586
2 67089  69.9995 256.9621 0004072 267.0246  17.1680 14.98359889    18

AllMySatでSTARLINK-35763をリアルタイム追跡

Download on the App Store